カタログに戻る

STARLINK-34961

運用中通信SSO
NORAD 65252·PAYLOAD·🇺🇸 United States

打ち上げ Aug 18, 2025 から Vandenberg Space Force Base

Loading…

次のパス (今後24時間)

TLE

最新Source: CelesTrak SupGP

元期: Sep 15, 2026, 03:25 UTC

1 65252C 25179T   26258.14284722 -.00042439  00000+0 -13173-2 0  2585
2 65252  97.2834 297.5066 0001206  94.1574 108.0779 15.33462304    13

AllMySatでSTARLINK-34961をリアルタイム追跡

Download on the App Store